Weather History for Rapid City, SD

Change the Weather History Date:

Sunday, March 16, 2014

  Actual Average Record
Temperature  
Mean Temperature 44 °F 35 °F  
Max Temperature 63 °F 48 °F 82 °F (2012)
Min Temperature 24 °F 23 °F -2 °F (1943)
Degree Days  
Heating Degree Days 21 30  
Month to date heating degree days 548 511  
Since 1 July heating degree days 6181 5721  
Cooling Degree Days 0 0  
Month to date cooling degree days 0 0  
Year to date cooling degree days 0 0  
Moisture  
Dew Point 26 °F    
Average Humidity 61    
Maximum Humidity 100    
Minimum Humidity 22    
Precipitation  
Precipitation 0.00 in 0.03 in 1.39 in (1963)
Month to date precipitation 0.50 0.44  
Year to date precipitation 0.99 1.18  
Snow  
Snow 0.00 in 0.20 in - ()
Month to date snowfall 6.5 4.5  
Since 1 July snowfall 49.5 27.9  
Snow Depth 0.00 in    
Sea Level Pressure  
Sea Level Pressure 30.11 in    
Wind  
Wind Speed 7 mph (South)    
Max Wind Speed 17 mph    
Max Gust Speed 25 mph    
Visibility 10 miles    
Events      
T = Trace of Precipitation, MM = Missing Value Source: NWS Daily Summary

Daily Weather History Graph

Daily Weather History Graph

Search for Another Location

Airport:

Trip Planner

Search our weather history database for the weather conditions in past years. The results will help you decide how hot, cold, wet, or windy it might be!

Date:

Astronomy

Mar. 16, 2014 Rise Set
Actual Time 7:02 AM MDT 6:59 PM MDT
Civil Twilight 6:33 AM MDT 7:28 PM MDT
Nautical Twilight 6:00 AM MDT 8:02 PM MDT
Astronomical Twilight 5:26 AM MDT 8:36 PM MDT
Moon 7:21 PM MDT 6:46 AM MDT
Length of Visible Light 12h 54m
Length of Day
11h 57m
Full, 100% of the Moon is Illuminated
Mar 16
Full
Mar 23
Last Quarter
Mar 30
New
Apr 7
First Quarter
Apr 15
Full

Hourly Weather History & Observations

Time (MDT) Temp. Windchill Dew Point Humidity Pressure Visibility Wind Dir Wind Speed Gust Speed Precip Events Conditions
12:52 AM 25.0 °F 18.1 °F 23.0 °F 92% 30.42 in 10.0 mi SSW 5.8 mph - N/A   Overcast
1:52 AM 25.0 °F 17.1 °F 23.0 °F 92% 30.40 in 10.0 mi South 6.9 mph - N/A   Overcast
2:00 AM 24.8 °F 16.9 °F 23.0 °F 93% 30.30 in 10.0 mi South 6.9 mph - N/A   Overcast
2:26 AM 24.8 °F 14.0 °F 23.0 °F 93% 30.30 in 10.0 mi SSW 11.5 mph - N/A   Overcast
2:52 AM 25.0 °F 14.8 °F 23.0 °F 92% 30.39 in 10.0 mi South 10.4 mph - N/A   Overcast
3:52 AM 26.1 °F 15.0 °F 24.1 °F 92% 30.36 in 10.0 mi South 12.7 mph - N/A   Overcast
4:52 AM 26.1 °F 14.5 °F 24.1 °F 92% 30.35 in 10.0 mi South 13.8 mph - N/A   Overcast
5:52 AM 26.1 °F 16.8 °F 24.1 °F 92% 30.37 in 10.0 mi South 9.2 mph - N/A   Overcast
6:52 AM 26.1 °F 16.2 °F 25.0 °F 96% 30.35 in 6.0 mi South 10.4 mph - N/A   Overcast
7:52 AM 27.0 °F 17.3 °F 26.1 °F 96% 30.32 in 10.0 mi South 10.4 mph - N/A   Overcast
8:52 AM 28.0 °F 18.1 °F 27.0 °F 96% 30.29 in 9.0 mi South 11.5 mph - N/A   Overcast
9:52 AM 30.9 °F 21.2 °F 28.9 °F 92% 30.25 in 9.0 mi South 12.7 mph - N/A   Overcast
10:38 AM 35.6 °F 28.6 °F 32.0 °F 87% 30.11 in 10.0 mi South 9.2 mph - N/A   Mostly Cloudy
10:52 AM 37.0 °F 29.3 °F 34.0 °F 89% 30.20 in 10.0 mi SSE 11.5 mph - N/A   Scattered Clouds
11:52 AM 46.0 °F 40.2 °F 35.1 °F 66% 30.12 in 10.0 mi SSE 12.7 mph - N/A   Clear
12:52 PM 52.0 °F - 34.0 °F 50% 30.08 in 10.0 mi SE 5.8 mph - N/A   Clear
1:52 PM 57.9 °F - 28.9 °F 33% 30.00 in 10.0 mi Calm Calm - N/A   Clear
2:52 PM 57.9 °F - 26.1 °F 30% 29.96 in 10.0 mi Variable 3.5 mph - N/A   Clear
3:52 PM 61.0 °F - 21.0 °F 21% 29.93 in 10.0 mi NW 12.7 mph - N/A   Partly Cloudy
4:52 PM 59.0 °F - 24.1 °F 26% 29.91 in 10.0 mi North 9.2 mph - N/A   Clear
5:52 PM 55.9 °F - 26.1 °F 32% 29.89 in 10.0 mi NNE 3.5 mph - N/A   Clear
6:52 PM 53.1 °F - 27.0 °F 37% 29.88 in 10.0 mi Calm Calm - N/A   Partly Cloudy
7:52 PM 41.0 °F - 27.0 °F 57% 29.89 in 10.0 mi Calm Calm - N/A   Clear
8:52 PM 45.0 °F 43.5 °F 25.0 °F 46% 29.86 in 10.0 mi South 3.5 mph - N/A   Clear
9:52 PM 37.0 °F 34.5 °F 25.0 °F 62% 29.86 in 10.0 mi WSW 3.5 mph - N/A   Clear
10:52 PM 39.0 °F - 24.1 °F 55% 29.81 in 10.0 mi Calm Calm - N/A   Clear
11:52 PM 36.0 °F - 24.1 °F 62% 29.77 in 10.0 mi Calm Calm - N/A   Clear